Flag for Germany Weather past 2 weeks in Friedrichshafen, Baden-Württemberg, Germany

Now
43 °F

Passing clouds.


Feels Like: 39 °F
Forecast: 32 / 47 °F
Wind: 6 mph from Southwest

Location: Friedrichshafen Airport

Current Time: Dec 22, 2014 at 2:52:21 PM

Latest Report: Dec 22, 2014 at 1:50 PM


Visibility: N/A

Pressure: 30.39 "Hg

Humidity: 66%

Dew point: 32 °F

Location of FriedrichshafenLocation

Historic Weather in Friedrichshafen — Graph

°F

Friedrichshafen temperature yesterday

Maximum temperature yesterday: 43 °F (at 12:20 AM)
Minimum temperature yesterday: 36 °F (at 6:20 PM)
Average temperature yesterday: 40 °F

Past Weeks' High & Low Weather Summary

 TemperatureHumidityPressure
High54 °F (Dec 13, 1:50 PM)100% (Dec 7, 6:20 PM)30.54 "Hg (Dec 7, 6:20 PM)
Low25 °F (Dec 10, 1:50 AM)40% (Dec 12, 7:50 PM)29.83 "Hg (Dec 12, 7:50 PM)
Average41 °F78%30.13 "Hg
* Reported Dec 7 1:20 PM — Dec 22 1:20 PM, Friedrichshafen, Weather by CustomWeather, © 2014

Note: Actual official high and low records may vary slightly from our data, if they occured in-between our weather recording intervals... More about our weather records

Advertising

Friedrichshafen weather history for previous 24 hours

 ConditionsComfort  
Time TempWeatherWind HumidityBarometerVisibility
1:20 PM
Dec 22
43 °FPassing clouds.13 mph66%30.39 "HgN/A
12:50 PM41 °FSunny.9 mph70%30.39 "Hg10 mi
12:20 PM41 °FSunny.9 mph70%30.42 "Hg10 mi
11:50 AM39 °FSunny.9 mph75%30.42 "Hg10 mi
11:20 AM39 °FPassing clouds.14 mph75%30.42 "HgN/A
10:50 AM39 °FPassing clouds.15 mph75%30.45 "HgN/A
10:20 AM39 °FPassing clouds.14 mph75%30.42 "HgN/A
9:50 AM39 °FSunny.10 mph70%30.45 "Hg10 mi
9:20 AM37 °FSunny.14 mph75%30.42 "Hg10 mi
8:50 AM37 °FSunny.16 mph75%30.42 "Hg10 mi
8:20 AM37 °FSunny.15 mph75%30.42 "Hg10 mi
7:50 AM37 °FClear.10 mph75%30.42 "Hg10 mi
7:20 AM37 °FClear.16 mph75%30.42 "Hg10 mi
6:50 AM37 °FClear.16 mph75%30.42 "Hg10 mi
6:20 AM37 °FClear.16 mph75%30.42 "Hg10 mi
5:50 AM37 °FChilly.20 mph75%30.42 "HgN/A
5:20 AM37 °FPassing clouds.20 mph75%30.42 "HgN/A
4:20 AM37 °FPassing clouds.15 mph75%30.42 "HgN/A
3:50 AM37 °FPassing clouds.10 mph75%30.45 "HgN/A
3:20 AM37 °FChilly.10 mph75%30.45 "HgN/A
2:50 AM39 °FChilly.9 mph70%30.45 "HgN/A
2:20 AM37 °FChilly.5 mph75%30.45 "HgN/A
1:50 AM36 °FChilly.6 mph81%30.45 "HgN/A
1:20 AM37 °FPassing clouds.9 mph75%30.45 "HgN/A
12:50 AM37 °FPassing clouds.10 mph75%30.45 "HgN/A
12:20 AM39 °FChilly.9 mph70%30.48 "HgN/A
11:50 PM
Dec 21
37 °FChilly.8 mph75%30.48 "HgN/A
11:20 PM37 °FChilly.9 mph75%30.48 "HgN/A
10:20 PM37 °FChilly.9 mph75%30.48 "HgN/A
9:50 PM37 °FPassing clouds.10 mph75%30.48 "HgN/A
9:20 PM39 °FPassing clouds.8 mph75%30.48 "HgN/A
8:50 PM39 °FPassing clouds.10 mph75%30.51 "HgN/A
8:20 PM37 °FPassing clouds.7 mph81%30.51 "HgN/A
7:50 PM37 °FClear.8 mph81%30.51 "Hg10 mi
7:20 PM37 °FClear.3 mph75%30.51 "Hg10 mi
6:50 PM36 °FClear.1 mph81%30.51 "Hg10 mi
6:20 PM36 °FClear.2 mph81%30.51 "Hg10 mi
5:50 PM37 °FClear.2 mph75%30.51 "Hg10 mi
5:20 PM39 °FClear.6 mph70%30.51 "Hg10 mi
4:50 PM41 °FClear.7 mph66%30.48 "Hg10 mi
4:20 PM41 °FSunny.5 mph66%30.48 "Hg10 mi
3:50 PM41 °FPassing clouds.7 mph66%30.48 "HgN/A
3:20 PM41 °FPassing clouds.7 mph66%30.51 "HgN/A
2:50 PM43 °FPassing clouds.8 mph61%30.51 "HgN/A
2:20 PM43 °FPassing clouds.8 mph61%30.51 "HgN/A
Weather by CustomWeather, © 2014

See weather overviewHow to use our weather pages